カタログに戻る

COSMO-SKYMED-FM3

運用中科学SSO
NORAD 67304·PAYLOAD·🇮🇹 Italy

打ち上げ Jan 3, 2026 から Vandenberg Space Force Base

Loading…

次のパス (今後24時間)

TLE

最新Source: Space-Track

元期: Sep 14, 2026, 10:45 UTC

1 67304U 26001A   26257.44799884  .00000199  00000-0  31596-4 0  9991
2 67304  97.8917  79.7794 0001363  87.7292 272.4077 14.82154010 37683

AllMySatでCOSMO-SKYMED-FM3をリアルタイム追跡

Download on the App Store